| time (UTC) | temp C | wind direction | speed KPH | gust KPH | rain 1hr cm | rain 24hr cm | rain mn cm | humidity % | barometer mb |
| 20260510131006 | 8 | 348 | 3.2 | 9.7 | 0.00 | 1.27 | 0.00 | 90 | 1014.3 |
| 20260510130503 | 8 | 338 | 3.2 | 9.7 | 0.00 | 1.27 | 0.00 | 91 | 1014.3 |
| 20260510130005 | 8 | 336 | 3.2 | 8.0 | 0.00 | 1.27 | 0.00 | 91 | 1014.1 |
| 20260510125504 | 8 | 352 | 1.6 | 8.0 | 0.00 | 1.27 | 0.00 | 91 | 1014.0 |
| 20260510125005 | 8 | 338 | 1.6 | 9.7 | 0.00 | 1.27 | 0.00 | 92 | 1014.1 |
| 20260510124503 | 8 | 354 | 1.6 | 9.7 | 0.00 | 1.27 | 0.00 | 92 | 1013.9 |
| 20260510124005 | 8 | 338 | 1.6 | 6.4 | 0.00 | 1.27 | 0.00 | 92 | 1013.8 |
| 20260510123503 | 8 | 335 | 3.2 | 6.4 | 0.00 | 1.27 | 0.00 | 92 | 1013.7 |
| 20260510123005 | 8 | 334 | 3.2 | 8.0 | 0.00 | 1.27 | 0.00 | 92 | 1013.8 |
| 20260510122503 | 8 | 323 | 1.6 | 8.0 | 0.00 | 1.27 | 0.00 | 92 | 1013.6 |
| 20260510122005 | 8 | 322 | 1.6 | 8.0 | 0.00 | 1.27 | 0.00 | 92 | 1013.4 |
| 20260510121503 | 8 | 326 | 1.6 | 8.0 | 0.00 | 1.27 | 0.00 | 92 | 1013.3 |
| 20260510121004 | 8 | 330 | 3.2 | 12.9 | 0.00 | 1.27 | 0.00 | 92 | 1013.4 |
| 20260510120504 | 8 | 329 | 1.6 | 12.9 | 0.00 | 1.27 | 0.00 | 92 | 1013.4 |
| 20260510120004 | 8 | 324 | 1.6 | 6.4 | 0.00 | 1.27 | 0.00 | 92 | 1013.2 |
| 20260510115504 | 7 | 329 | 3.2 | 9.7 | 0.00 | 1.27 | 0.00 | 92 | 1013.0 |
| 20260510115004 | 7 | 324 | 3.2 | 9.7 | 0.00 | 1.27 | 0.00 | 92 | 1013.1 |
| 20260510114504 | 7 | 321 | 1.6 | 8.0 | 0.00 | 1.27 | 0.00 | 92 | 1012.8 |
| 20260510114004 | 7 | 345 | 1.6 | 8.0 | 0.00 | 1.27 | 0.00 | 92 | 1012.7 |
| 20260510113503 | 7 | 354 | 1.6 | 8.0 | 0.00 | 1.27 | 0.00 | 92 | 1012.5 |
| 20260510113005 | 7 | 327 | 1.6 | 6.4 | 0.00 | 1.27 | 0.00 | 92 | 1012.3 |
| 20260510112504 | 7 | 324 | 3.2 | 8.0 | 0.00 | 1.27 | 0.00 | 92 | 1012.2 |
| 20260510112004 | 7 | 345 | 1.6 | 8.0 | 0.00 | 1.27 | 0.00 | 92 | 1012.2 |
| 20260510111504 | 7 | 345 | 1.6 | 6.4 | 0.00 | 1.27 | 0.00 | 92 | 1012.1 |
| 20260510111004 | 7 | 329 | 1.6 | 6.4 | 0.00 | 1.27 | 0.00 | 92 | 1011.9 |
| 20260510110504 | 7 | 333 | 0.0 | 3.2 | 0.00 | 1.27 | 0.00 | 92 | 1011.8 |
| 20260510110005 | 7 | 335 | 1.6 | 3.2 | 0.00 | 1.27 | 0.00 | 92 | 1011.7 |
| 20260510105504 | 7 | 336 | 1.6 | 6.4 | 0.00 | 1.27 | 0.00 | 92 | 1011.7 |
| 20260510105004 | 7 | 337 | 1.6 | 6.4 | 0.00 | 1.27 | 0.00 | 92 | 1011.5 |
| 20260510104504 | 7 | 340 | 0.0 | 4.8 | 0.00 | 1.27 | 0.00 | 92 | 1011.2 |
| 20260510103004 | 8 | 347 | 1.6 | 9.7 | 0.00 | 1.27 | 0.00 | 92 | 1010.9 |
| 20260510102504 | 8 | 354 | 1.6 | 9.7 | 0.00 | 1.27 | 0.00 | 92 | 1011.0 |
| 20260510102004 | 8 | 4 | 0.0 | 6.4 | 0.00 | 1.27 | 0.00 | 92 | 1010.9 |
| 20260510101504 | 8 | 330 | 0.0 | 4.8 | 0.00 | 1.27 | 0.00 | 92 | 1010.9 |
| 20260510101004 | 8 | 330 | 0.0 | 4.8 | 0.00 | 1.27 | 0.00 | 92 | 1010.9 |
| 20260510100503 | 8 | 0 | 0.0 | 0.0 | 0.00 | 1.27 | 0.00 | 92 | 1010.7 |
| 20260510095503 | 8 | 0 | 0.0 | 0.0 | 0.00 | 1.27 | 0.00 | 92 | 1010.8 |
| 20260510094503 | 8 | 11 | 0.0 | 4.8 | 0.00 | 1.27 | 0.00 | 92 | 1010.7 |
| 20260510094005 | 8 | 10 | 0.0 | 4.8 | 0.00 | 1.27 | 0.00 | 92 | 1010.6 |
| 20260510093504 | 8 | 0 | 0.0 | 0.0 | 0.00 | 1.27 | 0.00 | 92 | 1010.5 |
| 20260510093004 | 8 | 0 | 0.0 | 0.0 | 0.00 | 1.27 | 0.00 | 92 | 1010.3 |
| 20260510092504 | 8 | 0 | 0.0 | 0.0 | 0.00 | 1.27 | 0.00 | 91 | 1010.3 |
| 20260510092004 | 8 | 0 | 0.0 | 0.0 | 0.00 | 1.27 | 0.00 | 92 | 1010.1 |
| 20260510091504 | 8 | 0 | 0.0 | 0.0 | 0.00 | 1.27 | 0.00 | 92 | 1010.1 |
| 20260510091005 | 8 | 0 | 0.0 | 0.0 | 0.00 | 1.27 | 0.00 | 91 | 1009.9 |
| 20260510090504 | 9 | 0 | 0.0 | 0.0 | 0.00 | 1.27 | 0.00 | 91 | 1009.8 |
| 20260510090004 | 9 | 0 | 0.0 | 0.0 | 0.00 | 1.27 | 0.00 | 92 | 1009.6 |
| 20260510085504 | 9 | 0 | 0.0 | 0.0 | 0.00 | 1.27 | 0.00 | 92 | 1009.4 |
| 20260510085004 | 9 | 0 | 0.0 | 0.0 | 0.00 | 1.27 | 0.00 | 91 | 1009.4 |
| 20260510084005 | 10 | 0 | 0.0 | 0.0 | 0.00 | 1.30 | 0.00 | 92 | 1009.4 |
| 20260510083503 | 10 | 0 | 0.0 | 0.0 | 0.00 | 1.30 | 0.00 | 92 | 1009.5 |
| 20260510083005 | 10 | 0 | 0.0 | 0.0 | 0.00 | 1.30 | 0.00 | 92 | 1009.4 |
| 20260510082004 | 10 | 0 | 0.0 | 0.0 | 0.00 | 1.30 | 0.00 | 92 | 1009.5 |
| 20260510081504 | 10 | 0 | 0.0 | 0.0 | 0.00 | 1.30 | 0.00 | 92 | 1009.5 |
| 20260510081005 | 10 | 0 | 0.0 | 0.0 | 0.00 | 1.30 | 0.00 | 92 | 1009.5 |
| 20260510080503 | 10 | 9 | 0.0 | 3.2 | 0.00 | 1.32 | 0.00 | 92 | 1009.4 |
| 20260510080005 | 10 | 10 | 0.0 | 3.2 | 0.00 | 1.32 | 0.00 | 92 | 1009.2 |
| 20260510075503 | 11 | 9 | 0.0 | 3.2 | 0.00 | 1.35 | 0.00 | 92 | 1009.1 |
| 20260510075005 | 11 | 9 | 0.0 | 3.2 | 0.00 | 1.37 | 0.00 | 92 | 1009.0 |
| 20260510074503 | 11 | 7 | 0.0 | 3.2 | 0.00 | 1.37 | 0.00 | 92 | 1008.9 |
| 20260510074004 | 11 | 6 | 0.0 | 3.2 | 0.00 | 1.40 | 0.00 | 92 | 1008.8 |
| 20260510073504 | 11 | 6 | 0.0 | 1.6 | 0.00 | 1.40 | 0.00 | 92 | 1008.7 |
| 20260510072504 | 11 | 6 | 1.6 | 4.8 | 0.00 | 1.42 | 0.00 | 92 | 1008.5 |
| 20260510072004 | 11 | 6 | 1.6 | 4.8 | 0.00 | 1.42 | 0.00 | 92 | 1008.4 |
| 20260510071004 | 11 | 1 | 1.6 | 8.0 | 0.00 | 1.45 | 0.00 | 92 | 1008.3 |
| 20260510070504 | 11 | 3 | 1.6 | 4.8 | 0.00 | 1.45 | 0.00 | 92 | 1008.2 |
| 20260510070004 | 11 | 344 | 1.6 | 6.4 | 0.00 | 1.45 | 0.00 | 92 | 1008.2 |
| 20260510065504 | 11 | 326 | 1.6 | 6.4 | 0.00 | 1.45 | 0.00 | 93 | 1008.1 |
| 20260510065005 | 11 | 316 | 1.6 | 6.4 | 0.00 | 1.47 | 0.00 | 93 | 1007.9 |
| 20260510064504 | 11 | 318 | 3.2 | 6.4 | 0.00 | 1.47 | 0.00 | 93 | 1007.9 |
| 20260510064004 | 11 | 320 | 1.6 | 6.4 | 0.00 | 1.50 | 0.00 | 92 | 1007.8 |
| 20260510063504 | 11 | 319 | 0.0 | 4.8 | 0.00 | 1.52 | 0.00 | 92 | 1007.8 |
| 20260510063004 | 11 | 0 | 0.0 | 0.0 | 0.00 | 1.52 | 0.00 | 92 | 1007.8 |
| 20260510062504 | 11 | 0 | 0.0 | 0.0 | 0.00 | 1.55 | 0.00 | 92 | 1007.7 |
| 20260510061504 | 11 | 0 | 0.0 | 0.0 | 0.00 | 1.55 | 0.00 | 92 | 1007.5 |
| 20260510061004 | 12 | 0 | 0.0 | 0.0 | 0.00 | 1.55 | 0.00 | 92 | 1007.6 |
| 20260510060005 | 12 | 0 | 0.0 | 0.0 | 0.00 | 1.55 | 0.00 | 92 | 1007.5 |
| 20260510055503 | 12 | 0 | 0.0 | 0.0 | 0.00 | 1.57 | 0.00 | 92 | 1007.6 |
| 20260510055005 | 12 | 301 | 1.6 | 4.8 | 0.00 | 1.60 | 0.00 | 92 | 1007.6 |
| 20260510054004 | 12 | 0 | 0.0 | 0.0 | 0.00 | 1.65 | 0.00 | 92 | 1007.4 |
| 20260510053503 | 12 | 0 | 0.0 | 0.0 | 0.00 | 1.68 | 0.00 | 92 | 1007.3 |
| 20260510053004 | 12 | 0 | 0.0 | 0.0 | 0.00 | 1.70 | 0.00 | 92 | 1007.2 |
| 20260510052504 | 12 | 0 | 0.0 | 0.0 | 0.00 | 1.73 | 0.00 | 92 | 1007.1 |
| 20260510052004 | 12 | 0 | 0.0 | 0.0 | 0.00 | 1.75 | 0.00 | 92 | 1007.0 |
| 20260510051504 | 12 | 0 | 0.0 | 0.0 | 0.00 | 1.75 | 0.00 | 92 | 1006.9 |
| 20260510050503 | 12 | 0 | 0.0 | 0.0 | 0.00 | 1.78 | 0.00 | 92 | 1006.6 |
| 20260510050005 | 12 | 0 | 0.0 | 0.0 | 0.00 | 1.80 | 0.00 | 92 | 1006.5 |
| 20260510045504 | 12 | 0 | 0.0 | 0.0 | 0.00 | 1.83 | 0.00 | 92 | 1006.5 |
| 20260510045005 | 12 | 0 | 0.0 | 0.0 | 0.00 | 1.83 | 0.00 | 92 | 1006.5 |
| 20260510044504 | 12 | 0 | 0.0 | 0.0 | 0.00 | 1.85 | 0.00 | 92 | 1006.5 |
| 20260510044004 | 12 | 0 | 0.0 | 0.0 | 0.00 | 1.85 | 0.00 | 92 | 1006.4 |
| 20260510043503 | 12 | 0 | 0.0 | 0.0 | 0.03 | 1.85 | 0.00 | 92 | 1006.6 |
| 20260510043005 | 12 | 0 | 0.0 | 0.0 | 0.03 | 1.85 | 0.00 | 92 | 1006.7 |
| 20260510042506 | 12 | 0 | 0.0 | 0.0 | 0.05 | 1.85 | 0.00 | 92 | 1006.6 |
| 20260510042005 | 12 | 0 | 0.0 | 0.0 | 0.08 | 1.85 | 0.00 | 92 | 1006.6 |
| 20260510041504 | 12 | 0 | 0.0 | 0.0 | 0.13 | 1.85 | 0.00 | 92 | 1006.6 |
| 20260510041004 | 12 | 0 | 0.0 | 0.0 | 0.13 | 1.85 | 0.00 | 92 | 1006.6 |
| 20260510040008 | 12 | 0 | 0.0 | 0.0 | 0.13 | 1.85 | 0.00 | 92 | 1006.6 |
| 20260510035503 | 12 | 0 | 0.0 | 0.0 | 0.13 | 1.85 | 1.85 | 92 | 1006.6 |
| 20260510034005 | 12 | 247 | 1.6 | 4.8 | 0.13 | 1.85 | 1.85 | 92 | 1006.7 |
| 20260510033004 | 12 | 293 | 4.8 | 17.7 | 0.10 | 1.85 | 1.83 | 92 | 1006.8 |
| 20260510032504 | 12 | 282 | 3.2 | 14.5 | 0.13 | 1.83 | 1.80 | 92 | 1007.1 |
| 20260510032005 | 12 | 223 | 0.0 | 1.6 | 0.13 | 1.83 | 1.78 | 91 | 1006.7 |
| 20260510031503 | 12 | 0 | 0.0 | 0.0 | 0.08 | 1.78 | 1.73 | 91 | 1006.2 |
| 20260510031005 | 12 | 0 | 0.0 | 0.0 | 0.08 | 1.78 | 1.73 | 91 | 1006.6 |
| 20260510030005 | 12 | 0 | 0.0 | 0.0 | 0.08 | 1.78 | 1.73 | 91 | 1006.7 |
| 20260510025503 | 12 | 0 | 0.0 | 0.0 | 0.08 | 1.78 | 1.73 | 91 | 1006.8 |
| 20260510025005 | 12 | 0 | 0.0 | 0.0 | 0.08 | 1.80 | 1.73 | 91 | 1006.6 |
| 20260510024504 | 12 | 292 | 0.0 | 1.6 | 0.08 | 1.80 | 1.73 | 91 | 1006.5 |
| 20260510024004 | 12 | 302 | 1.6 | 8.0 | 0.08 | 1.80 | 1.73 | 91 | 1006.6 |
| 20260510023504 | 12 | 300 | 3.2 | 9.7 | 0.08 | 1.83 | 1.73 | 91 | 1006.8 |
| 20260510023004 | 12 | 303 | 3.2 | 9.7 | 0.08 | 1.83 | 1.73 | 91 | 1007.0 |
| 20260510022504 | 12 | 332 | 0.0 | 9.7 | 0.00 | 1.75 | 1.65 | 90 | 1006.7 |
| 20260510021504 | 12 | 0 | 0.0 | 0.0 | 0.00 | 1.78 | 1.65 | 90 | 1005.7 |
| 20260510021004 | 12 | 0 | 0.0 | 0.0 | 0.00 | 1.78 | 1.65 | 90 | 1005.7 |
| 20260510020503 | 12 | 0 | 0.0 | 0.0 | 0.00 | 1.78 | 1.65 | 89 | 1005.7 |
| 20260510020005 | 12 | 0 | 0.0 | 0.0 | 0.00 | 1.80 | 1.65 | 89 | 1005.9 |
| 20260510015503 | 12 | 0 | 0.0 | 0.0 | 0.00 | 1.80 | 1.65 | 89 | 1005.9 |
| 20260510015005 | 12 | 0 | 0.0 | 0.0 | 0.00 | 1.80 | 1.65 | 89 | 1005.8 |
| 20260510014503 | 12 | 0 | 0.0 | 0.0 | 0.00 | 1.80 | 1.65 | 89 | 1005.6 |
| 20260510014004 | 12 | 0 | 0.0 | 0.0 | 0.00 | 1.80 | 1.65 | 89 | 1005.7 |
| 20260510013504 | 13 | 0 | 0.0 | 0.0 | 0.00 | 1.83 | 1.65 | 89 | 1005.7 |
| 20260510013004 | 13 | 0 | 0.0 | 0.0 | 0.00 | 1.83 | 1.65 | 88 | 1005.7 |
| 20260510012504 | 13 | 0 | 0.0 | 0.0 | 0.00 | 1.83 | 1.65 | 88 | 1005.6 |
| 20260510012005 | 13 | 0 | 0.0 | 0.0 | 0.00 | 1.85 | 1.65 | 88 | 1005.4 |
| 20260510011503 | 13 | 0 | 0.0 | 0.0 | 0.03 | 1.85 | 1.65 | 88 | 1005.4 |
| 20260510011005 | 13 | 0 | 0.0 | 0.0 | 0.03 | 1.88 | 1.65 | 88 | 1005.4 |
| 20260510010005 | 13 | 0 | 0.0 | 0.0 | 0.05 | 1.88 | 1.65 | 87 | 1005.4 |
| 20260510005503 | 13 | 0 | 0.0 | 0.0 | 0.10 | 1.91 | 1.65 | 87 | 1005.4 |
| 20260510005005 | 13 | 0 | 0.0 | 0.0 | 0.33 | 1.91 | 1.65 | 87 | 1005.4 |
| 20260510004503 | 13 | 0 | 0.0 | 0.0 | 0.43 | 1.91 | 1.65 | 86 | 1005.2 |
| 20260510004004 | 13 | 239 | 0.0 | 4.8 | 0.51 | 1.93 | 1.65 | 86 | 1005.3 |
| 20260510003504 | 13 | 239 | 1.6 | 4.8 | 0.58 | 1.93 | 1.65 | 86 | 1005.3 |
| 20260510003004 | 13 | 239 | 1.6 | 4.8 | 0.74 | 1.96 | 1.65 | 86 | 1005.3 |
| 20260510002504 | 13 | 239 | 1.6 | 4.8 | 0.86 | 1.96 | 1.65 | 85 | 1005.3 |
| 20260510002004 | 13 | 270 | 1.6 | 11.3 | 0.99 | 1.96 | 1.65 | 85 | 1005.3 |
| 20260510001503 | 13 | 261 | 3.2 | 11.3 | 1.04 | 1.96 | 1.63 | 85 | 1005.3 |
| 20260510001005 | 14 | 226 | 3.2 | 11.3 | 1.04 | 1.96 | 1.63 | 84 | 1005.4 |
| 20260510000503 | 14 | 240 | 3.2 | 11.3 | 1.04 | 1.98 | 1.63 | 83 | 1005.5 |
| 20260510000004 | 15 | 284 | 3.2 | 16.1 | 1.02 | 1.96 | 1.60 | 82 | 1005.6 |
| 20260509235504 | 15 | 303 | 6.4 | 22.5 | 0.97 | 1.91 | 1.55 | 81 | 1005.6 |
| 20260509234504 | 16 | 306 | 8.0 | 25.7 | 0.64 | 1.63 | 1.22 | 78 | 1005.4 |
| 20260509233503 | 17 | 310 | 8.0 | 22.5 | 0.46 | 1.45 | 1.04 | 73 | 1005.5 |
| 20260509233005 | 18 | 311 | 9.7 | 25.7 | 0.33 | 1.32 | 0.91 | 72 | 1004.9 |
| 20260509232504 | 18 | 310 | 11.3 | 27.4 | 0.20 | 1.19 | 0.79 | 69 | 1005.1 |
| 20260509232004 | 19 | 289 | 8.0 | 27.4 | 0.08 | 1.07 | 0.66 | 67 | 1004.7 |
| 20260509231503 | 19 | 230 | 6.4 | 16.1 | 0.00 | 1.02 | 0.58 | 61 | 1004.2 |
| 20260509231005 | 19 | 221 | 6.4 | 16.1 | 0.00 | 1.02 | 0.58 | 58 | 1003.3 |
| 20260509230503 | 20 | 225 | 6.4 | 17.7 | 0.00 | 1.02 | 0.58 | 56 | 1003.0 |
| 20260509230005 | 20 | 222 | 6.4 | 17.7 | 0.00 | 1.02 | 0.58 | 56 | 1003.0 |
| 20260509225004 | 20 | 235 | 8.0 | 20.9 | 0.00 | 1.02 | 0.58 | 56 | 1003.1 |
| 20260509224504 | 20 | 226 | 9.7 | 25.7 | 0.00 | 1.04 | 0.58 | 56 | 1002.8 |
| 20260509223005 | 20 | 217 | 8.0 | 20.9 | 0.00 | 1.07 | 0.58 | 57 | 1002.7 |
| 20260509222504 | 20 | 218 | 8.0 | 20.9 | 0.00 | 1.07 | 0.58 | 55 | 1002.9 |
| 20260509222004 | 20 | 225 | 8.0 | 19.3 | 0.00 | 1.07 | 0.58 | 55 | 1002.8 |
| 20260509221504 | 20 | 215 | 8.0 | 19.3 | 0.00 | 1.07 | 0.58 | 55 | 1002.8 |
| 20260509221004 | 20 | 215 | 6.4 | 24.1 | 0.00 | 1.07 | 0.58 | 54 | 1002.7 |
| 20260509220504 | 20 | 222 | 4.8 | 24.1 | 0.00 | 1.07 | 0.58 | 56 | 1002.7 |
| 20260509215504 | 20 | 218 | 9.7 | 17.7 | 0.00 | 1.07 | 0.58 | 54 | 1002.8 |
| 20260509215005 | 20 | 218 | 9.7 | 24.1 | 0.00 | 1.09 | 0.58 | 53 | 1002.7 |
| 20260509214503 | 20 | 220 | 9.7 | 24.1 | 0.00 | 1.09 | 0.58 | 54 | 1002.8 |
| 20260509214007 | 20 | 217 | 8.0 | 22.5 | 0.00 | 1.09 | 0.58 | 54 | 1002.7 |
| 20260509213503 | 20 | 212 | 8.0 | 20.9 | 0.00 | 1.09 | 0.58 | 54 | 1002.9 |
| 20260509213005 | 20 | 206 | 8.0 | 25.7 | 0.00 | 1.09 | 0.58 | 55 | 1002.7 |
| 20260509212504 | 20 | 210 | 8.0 | 25.7 | 0.00 | 1.09 | 0.58 | 55 | 1002.8 |
| 20260509212004 | 20 | 212 | 8.0 | 20.9 | 0.00 | 1.09 | 0.58 | 56 | 1002.9 |
| 20260509211504 | 20 | 215 | 8.0 | 20.9 | 0.00 | 1.09 | 0.58 | 55 | 1002.9 |
| 20260509211004 | 20 | 218 | 8.0 | 19.3 | 0.00 | 1.09 | 0.58 | 56 | 1003.0 |
| 20260509210504 | 20 | 224 | 9.7 | 24.1 | 0.00 | 1.09 | 0.58 | 57 | 1003.1 |
| 20260509210004 | 20 | 228 | 8.0 | 24.1 | 0.00 | 1.09 | 0.58 | 56 | 1003.2 |
| 20260509205504 | 20 | 217 | 6.4 | 25.7 | 0.00 | 1.09 | 0.58 | 57 | 1003.2 |
| 20260509205004 | 20 | 209 | 8.0 | 25.7 | 0.00 | 1.09 | 0.58 | 56 | 1003.3 |
| 20260509204504 | 20 | 217 | 8.0 | 20.9 | 0.00 | 1.09 | 0.58 | 57 | 1003.4 |
| 20260509204004 | 20 | 211 | 8.0 | 24.1 | 0.00 | 1.12 | 0.58 | 57 | 1003.5 |
| 20260509203504 | 20 | 211 | 6.4 | 24.1 | 0.00 | 1.14 | 0.58 | 57 | 1003.5 |
| 20260509202504 | 20 | 205 | 8.0 | 20.9 | 0.00 | 1.14 | 0.58 | 58 | 1003.7 |
| 20260509202004 | 21 | 222 | 8.0 | 17.7 | 0.00 | 1.17 | 0.58 | 56 | 1003.8 |
| 20260509201504 | 21 | 239 | 6.4 | 16.1 | 0.00 | 1.17 | 0.58 | 59 | 1003.7 |
| 20260509201005 | 20 | 233 | 8.0 | 19.3 | 0.00 | 1.19 | 0.58 | 58 | 1004.0 |
| 20260509200503 | 20 | 227 | 8.0 | 20.9 | 0.00 | 1.19 | 0.58 | 58 | 1003.9 |
| 20260509195005 | 20 | 235 | 8.0 | 20.9 | 0.00 | 1.19 | 0.58 | 59 | 1004.0 |
| 20260509194504 | 20 | 230 | 8.0 | 20.9 | 0.00 | 1.19 | 0.58 | 57 | 1004.1 |
| 20260509194005 | 20 | 225 | 9.7 | 19.3 | 0.00 | 1.19 | 0.58 | 58 | 1004.2 |
| 20260509193504 | 20 | 227 | 8.0 | 19.3 | 0.00 | 1.19 | 0.58 | 58 | 1004.2 |
| 20260509192503 | 20 | 230 | 6.4 | 17.7 | 0.00 | 1.19 | 0.58 | 59 | 1004.5 |
| 20260509192005 | 20 | 226 | 6.4 | 17.7 | 0.00 | 1.19 | 0.58 | 58 | 1004.7 |
| 20260509191503 | 20 | 227 | 6.4 | 20.9 | 0.00 | 1.19 | 0.58 | 58 | 1004.7 |
| 20260509191004 | 20 | 228 | 9.7 | 27.4 | 0.00 | 1.19 | 0.58 | 57 | 1004.8 |
| 20260509190503 | 20 | 235 | 9.7 | 27.4 | 0.00 | 1.19 | 0.58 | 57 | 1004.8 |
| 20260509190005 | 20 | 237 | 6.4 | 20.9 | 0.00 | 1.19 | 0.58 | 58 | 1004.8 |
| 20260509185503 | 20 | 236 | 6.4 | 19.3 | 0.00 | 1.19 | 0.58 | 59 | 1004.8 |
| 20260509185004 | 20 | 239 | 8.0 | 20.9 | 0.00 | 1.19 | 0.58 | 58 | 1004.9 |
| 20260509184504 | 20 | 239 | 6.4 | 20.9 | 0.00 | 1.19 | 0.58 | 59 | 1004.9 |
| 20260509183504 | 20 | 219 | 8.0 | 22.5 | 0.00 | 1.19 | 0.58 | 58 | 1004.8 |
| 20260509182504 | 20 | 224 | 8.0 | 22.5 | 0.00 | 1.19 | 0.58 | 60 | 1004.9 |
| 20260509182004 | 20 | 220 | 8.0 | 22.5 | 0.00 | 1.19 | 0.58 | 58 | 1004.9 |
| 20260509181504 | 21 | 218 | 8.0 | 22.5 | 0.00 | 1.19 | 0.58 | 58 | 1005.0 |
| 20260509181004 | 21 | 215 | 6.4 | 16.1 | 0.00 | 1.19 | 0.58 | 58 | 1005.0 |
| 20260509180504 | 21 | 214 | 6.4 | 12.9 | 0.00 | 1.19 | 0.58 | 61 | 1004.8 |
| 20260509180004 | 20 | 205 | 6.4 | 16.1 | 0.00 | 1.19 | 0.58 | 62 | 1005.0 |
| 20260509175504 | 20 | 204 | 6.4 | 16.1 | 0.00 | 1.22 | 0.58 | 59 | 1005.0 |
| 20260509175004 | 21 | 226 | 8.0 | 17.7 | 0.00 | 1.22 | 0.58 | 59 | 1005.0 |
| 20260509174504 | 21 | 229 | 8.0 | 19.3 | 0.00 | 1.22 | 0.58 | 60 | 1005.1 |
| 20260509174004 | 20 | 224 | 6.4 | 19.3 | 0.00 | 1.22 | 0.58 | 59 | 1005.1 |
| 20260509173504 | 21 | 231 | 6.4 | 16.1 | 0.00 | 1.22 | 0.58 | 59 | 1005.0 |
| 20260509173005 | 20 | 223 | 6.4 | 16.1 | 0.00 | 1.24 | 0.58 | 61 | 1005.0 |
| 20260509172504 | 20 | 201 | 6.4 | 16.1 | 0.00 | 1.24 | 0.58 | 60 | 1005.0 |
| 20260509172005 | 20 | 202 | 4.8 | 16.1 | 0.00 | 1.24 | 0.58 | 62 | 1005.0 |
| 20260509170504 | 19 | 219 | 6.4 | 14.5 | 0.00 | 1.24 | 0.58 | 63 | 1004.9 |
| 20260509170004 | 19 | 225 | 4.8 | 12.9 | 0.00 | 1.24 | 0.58 | 63 | 1004.9 |
| 20260509165503 | 18 | 233 | 4.8 | 12.9 | 0.00 | 1.24 | 0.58 | 66 | 1005.0 |
| 20260509165004 | 18 | 228 | 6.4 | 16.1 | 0.00 | 1.24 | 0.58 | 67 | 1005.1 |
| 20260509164005 | 18 | 234 | 4.8 | 12.9 | 0.00 | 1.24 | 0.58 | 66 | 1005.4 |
| 20260509163504 | 18 | 251 | 4.8 | 12.9 | 0.00 | 1.24 | 0.58 | 68 | 1005.5 |
| 20260509163004 | 18 | 235 | 6.4 | 16.1 | 0.00 | 1.24 | 0.58 | 68 | 1005.6 |
| 20260509162504 | 18 | 229 | 6.4 | 16.1 | 0.00 | 1.24 | 0.58 | 68 | 1005.6 |
| 20260509162005 | 17 | 226 | 6.4 | 16.1 | 0.00 | 1.24 | 0.58 | 69 | 1005.5 |
| 20260509161005 | 17 | 220 | 6.4 | 14.5 | 0.00 | 1.24 | 0.58 | 72 | 1005.4 |
| 20260509160504 | 17 | 219 | 6.4 | 12.9 | 0.00 | 1.24 | 0.58 | 76 | 1005.5 |
| 20260509160005 | 16 | 233 | 6.4 | 17.7 | 0.00 | 1.24 | 0.58 | 78 | 1005.5 |
| 20260509155504 | 16 | 252 | 4.8 | 17.7 | 0.00 | 1.24 | 0.58 | 82 | 1005.5 |
| 20260509155004 | 15 | 246 | 6.4 | 14.5 | 0.00 | 1.24 | 0.58 | 86 | 1005.5 |
| 20260509154504 | 15 | 247 | 4.8 | 14.5 | 0.00 | 1.24 | 0.58 | 88 | 1005.6 |
| 20260509154005 | 15 | 249 | 4.8 | 14.5 | 0.00 | 1.24 | 0.58 | 90 | 1005.6 |
| 20260509153504 | 15 | 266 | 4.8 | 14.5 | 0.00 | 1.24 | 0.58 | 91 | 1005.4 |
| 20260509153004 | 14 | 266 | 4.8 | 14.5 | 0.00 | 1.24 | 0.58 | 92 | 1005.4 |
| 20260509152504 | 14 | 230 | 4.8 | 12.9 | 0.00 | 1.24 | 0.58 | 93 | 1005.5 |
| 20260509152004 | 14 | 231 | 3.2 | 12.9 | 0.00 | 1.24 | 0.58 | 94 | 1005.4 |
| 20260509145504 | 13 | 234 | 4.8 | 14.5 | 0.00 | 1.24 | 0.58 | 94 | 1005.4 |
| 20260509145004 | 13 | 234 | 4.8 | 9.7 | 0.00 | 1.24 | 0.58 | 94 | 1005.4 |
| 20260509144504 | 13 | 231 | 3.2 | 9.7 | 0.00 | 1.24 | 0.58 | 94 | 1005.4 |
| 20260509144005 | 13 | 225 | 3.2 | 8.0 | 0.00 | 1.24 | 0.58 | 94 | 1005.5 |
| 20260509143504 | 13 | 236 | 4.8 | 11.3 | 0.00 | 1.24 | 0.58 | 94 | 1005.4 |
| 20260509143005 | 12 | 245 | 3.2 | 11.3 | 0.00 | 1.24 | 0.58 | 94 | 1005.4 |
| 20260509142504 | 12 | 244 | 0.0 | 11.3 | 0.00 | 1.24 | 0.58 | 94 | 1005.4 |
| 20260509142004 | 12 | 233 | 0.0 | 4.8 | 0.00 | 1.24 | 0.58 | 94 | 1005.5 |
| 20260509141504 | 12 | 227 | 1.6 | 6.4 | 0.00 | 1.24 | 0.58 | 94 | 1005.5 |
| 20260509141004 | 12 | 221 | 1.6 | 6.4 | 0.00 | 1.24 | 0.58 | 94 | 1005.5 |
| 20260509140504 | 12 | 209 | 1.6 | 4.8 | 0.00 | 1.24 | 0.58 | 94 | 1005.5 |
| 20260509140005 | 12 | 209 | 1.6 | 4.8 | 0.00 | 1.24 | 0.58 | 94 | 1005.3 |
| 20260509135503 | 12 | 208 | 3.2 | 8.0 | 0.00 | 1.24 | 0.58 | 94 | 1005.5 |
| 20260509135004 | 12 | 219 | 3.2 | 8.0 | 0.00 | 1.24 | 0.58 | 94 | 1005.5 |
| 20260509134504 | 12 | 229 | 3.2 | 6.4 | 0.00 | 1.24 | 0.58 | 94 | 1005.4 |
| 20260509134004 | 12 | 226 | 3.2 | 6.4 | 0.00 | 1.24 | 0.58 | 94 | 1005.5 |
| 20260509133503 | 12 | 224 | 3.2 | 8.0 | 0.00 | 1.24 | 0.58 | 94 | 1005.5 |
| 20260509133005 | 12 | 223 | 1.6 | 8.0 | 0.00 | 1.24 | 0.58 | 94 | 1005.5 |
| 20260509132503 | 12 | 219 | 1.6 | 6.4 | 0.00 | 1.24 | 0.58 | 94 | 1005.5 |
| 20260509132005 | 11 | 219 | 1.6 | 6.4 | 0.00 | 1.24 | 0.58 | 94 | 1005.6 |
| 20260509131503 | 11 | 0 | 0.0 | 0.0 | 0.00 | 1.24 | 0.58 | 94 | 1005.6 |